User: anonymous   Login
Location: Emory University Observatory
(33.7903°N, 84.3267°W)
Time: 18:46:01
(UTC-05:00)
Language:

AIST 2D - Orbit

View from above orbital plane
View from above orbital plane
View from above satellite
View from above satellite

Ground track
Ground track

The orbit data is extracted from the following two-line orbital elements,

1 41465U 16026B   18022.58059917  .00001247  00000-0  42406-4 0  9996
2 41465  97.2352 285.5654 0012294 148.3224 307.7625 15.32240699 97048
Epoch (UTC): 22 January 2018 13:56:03
Eccentricity: 0.0012294
inclination: 97.2352°
perigee height: 461 km
apogee height: 477 km
right ascension of ascending node: 285.5654°
argument of perigee: 148.3224°
revolutions per day: 15.32240699
mean anomaly at epoch: 307.7625°
orbit number at epoch: 9704

The dashed part of the orbit path shows where the satellite is in the earth's shadow,  

DLR